TITAN 3C TRANSTAGE DEB, 1722

Orbit data source: Space-Track

TITAN 3C TRANSTAGE DEB, 1722 is space debris in LEO originally from a launch on Fri, 15 Oct 1965 UTC launched from the Air Force Eastern Test Range (AFETR). Debris objects in space refer to the collection of defunct objects orbiting the Earth. Examples of debris include non-operational satellites, rocket bodies, and fragments generated from explosions, collisions, or faulty payload assembly.

Loading next visibility...
Identifier
1722, 1965-082CD
Orbit
LEO
Country
Flag of USUS
Related business
Manufacturer
Unknown
Mission
Spacecraft
Bus & Motor
Unknown
Mass
Unknown
Launch date (UTC)
1965-10-15 (60 years ago)
Launch vehicle
Unknown
Launch site
Air Force Eastern Test Range (AFETR)
Object type
Payload
Rocket body
Debris
Shape & HBR
Unknown shape, 0.2 m
Radar Cross Section
Small (<0.1 m²)

Expand to show TLE details & history
Last TLE update: 17 hours ago

TLE from 17 hours ago
0 TITAN 3C TRANSTAGE DEB
1 01722U 65082CD  25300.15057375  .00001192  00000-0  21803-3 0  9996
2 01722  32.4181 251.8522 0027750 219.7212 140.1406 14.63636079164836
Epoch: 2025-10-27T03:36Z
TLE epoch observation values (Epoch: 2025-10-27T03:36:49.572Z)
Latitude
0.00003°
Longitude
161.88915°
Altitude
695.191 km
Speed
7.503 km/s
True Right ascension
16h 47m 24s
True Declination
0° 00' 00"
Sunlit
Object was in daylight at epoch
Visualization orbit readout
Latitude
Unknown
Longitude
Unknown
Altitude
Unknown
Speed
Unknown
Apparent Right ascension
Unknown
Apparent Declination
Unknown
Sunlit
N/A
Visualization observer readout
Local Sidereal Time
16:16:27
Azimuth
Unknown
Elevation
Unknown
Doppler factor
Unknown
Orbital elements
Apogee altitude
704.613 km
Perigee altitude
665.412 km
Semi-major axis
7,063.15 km
Eccentricity
0.00278
Inclination
32.4181°
RAAN
251.8522°
Arg. of periapsis
219.7212°
True anomaly
140.34386°
Mean anomaly
140.1406°
Eccentric anomaly
140.24228°
Mean motion
3.65633 °/min
Orbital period
98.46 mins
BSTAR
0.00021803

Documentation

Showing up to 5 results
|